Lapse_Rate
6.7 6.8 6.9 6.9 6.9 7.0 7.0 7.3 7.4 7.7 7.3 7.9 8.3 8.8 8.7 8.6 8.6 8.4 8.1 7.9 7.7 7.3 6.6 6.2 6.1 6.0 5.9 5.8 5.7 5.7 5.7 5.6 5.6 5.3 5.3 5.6 5.8 5.6 5.6 5.6 5.3 5.4 5.4 5.2
6.5 6.7 6.8 6.9 6.9 6.9 7.1 7.5 7.5 8.0 7.7 7.8 8.2 8.5 8.3 8.6 8.8 8.7 8.2 7.9 7.6 7.2 6.9 6.4 6.0 5.8 6.0 5.8 5.6 5.8 5.8 5.7 5.6 5.4 5.2 5.4 5.6 5.6 5.3 5.4 5.4 5.6 5.4 5.2
6.5 6.9 6.7 6.9 6.9 7.0 7.3 7.5 7.6 7.7 7.9 8.0 7.9 8.2 8.5 8.6 8.9 8.6 8.2 8.0 7.7 7.2 7.0 6.6 6.3 6.1 6.1 6.1 5.8 6.0 5.8 5.7 5.7 5.6 5.4 5.2 5.5 5.2 5.2 5.5 5.5 5.4 5.4 5.3
6.8 7.0 7.0 7.0 7.2 7.3 7.6 7.5 7.7 8.0 7.9 7.8 7.8 8.1 8.7 8.9 8.9 8.5 8.2 8.2 8.0 7.9 7.1 6.5 6.1 6.1 6.2 6.1 5.8 5.8 5.7 5.8 5.8 5.8 5.6 5.2 5.1 5.0 5.1 5.1 5.2 5.3 5.4 5.4
7.2 7.1 7.2 7.4 7.7 7.4 7.6 7.9 7.9 8.2 8.1 7.6 8.0 7.5 8.5 8.7 8.9 8.7 8.4 8.4 8.2 7.9 7.2 6.7 6.4 6.0 6.4 6.1 5.9 6.2 6.0 5.8 6.0 5.9 5.7 5.3 5.2 5.4 5.0 5.0 5.2 5.4 5.4 5.4
7.2 7.2 7.2 7.5 7.7 7.7 7.6 8.1 8.2 8.3 8.3 8.1 8.0 7.8 8.7 8.6 8.6 8.8 8.6 8.5 8.1 7.9 7.4 6.8 6.5 6.5 6.6 6.0 6.1 6.5 6.5 6.3 6.3 6.0 5.9 5.4 5.2 5.3 5.3 5.3 5.2 5.4 5.3 5.4
7.3 7.5 7.6 7.7 7.9 8.2 8.3 8.2 8.4 8.7 8.6 8.8 8.0 7.4 8.4 8.7 8.7 8.8 8.8 8.7 8.6 8.2 7.7 7.1 6.9 6.7 6.5 6.1 6.2 6.2 6.6 6.6 6.5 6.3 6.1 5.8 5.6 5.4 5.3 5.3 5.2 5.4 5.3 5.3
7.4 7.9 7.9 8.0 8.1 8.1 8.1 8.2 8.4 8.3 8.8 8.8 8.1 8.0 8.5 8.9 8.7 8.8 8.8 8.8 8.7 8.5 8.2 8.2 7.5 6.8 6.6 6.4 6.6 6.1 6.0 6.1 6.5 6.4 6.3 6.0 5.8 5.4 5.2 5.6 5.5 5.4 5.3 5.2
7.7 8.0 8.7 8.6 8.4 8.2 8.5 8.5 8.5 8.4 8.0 7.9 8.5 8.6 8.8 9.0 8.8 8.8 9.0 8.7 8.5 8.5 8.3 8.2 8.1 7.5 7.0 6.6 6.6 6.4 6.2 6.1 6.1 6.4 6.4 6.3 5.9 5.7 5.5 5.4 5.3 5.2 5.2 5.2
7.5 7.4 8.3 8.6 8.6 8.5 8.4 8.4 8.6 8.5 8.8 8.7 8.7 8.3 8.7 9.0 9.1 9.2 9.1 9.1 8.6 8.5 8.5 8.2 7.7 7.6 7.3 6.9 6.7 6.5 6.5 6.1 5.9 6.0 6.3 6.3 6.2 5.9 5.6 5.5 5.3 5.1 5.1 5.2
7.0 6.8 7.4 8.1 8.6 8.7 8.7 8.4 8.6 8.7 8.6 9.2 9.1 9.0 9.1 8.9 9.0 9.2 9.3 9.1 8.9 8.6 8.4 8.1 8.0 7.4 7.2 7.1 6.9 6.6 6.2 6.3 6.3 6.1 6.1 6.2 6.1 6.1 6.0 5.8 5.6 5.3 5.3 5.3
6.9 6.5 6.4 6.9 7.6 8.1 8.4 8.6 8.7 8.8 8.6 8.1 8.2 8.6 9.0 9.1 9.1 9.0 9.1 9.3 9.0 9.0 8.7 8.4 7.9 7.9 7.5 7.3 7.0 6.8 6.5 6.4 6.2 6.3 6.1 6.0 6.0 6.1 6.1 6.1 5.9 5.8 5.6 5.6
6.6 6.5 6.6 6.8 7.2 7.4 7.4 7.7 8.0 8.0 8.2 8.2 9.0 8.8 8.8 9.1 9.3 9.2 9.1 9.3 9.2 9.1 9.0 8.6 8.4 8.2 7.7 7.5 7.1 7.1 6.9 6.6 6.3 6.1 6.2 6.0 5.9 6.1 6.1 6.1 6.1 6.0 5.9 5.9
6.6 6.6 6.7 7.1 7.1 6.8 6.8 7.0 7.1 6.8 7.5 8.3 8.2 8.7 9.0 9.0 9.0 9.2 9.3 9.2 9.2 9.4 9.4 8.9 8.8 8.5 8.1 7.8 7.5 7.1 7.1 6.5 6.1 6.1 6.3 6.0 5.9 6.0 5.9 5.9 6.1 6.1 6.1 6.1
6.2 6.1 6.5 6.5 6.8 6.7 6.6 7.0 7.3 6.5 6.9 7.0 7.9 7.6 8.4 8.8 8.8 9.0 9.0 9.1 9.4 9.2 9.4 9.2 8.9 8.7 8.4 8.0 7.5 7.4 7.3 6.8 6.4 6.4 6.3 6.3 6.1 6.1 6.0 6.0 6.0 6.1 6.1 6.1
6.2 5.8 6.1 5.8 6.6 6.5 6.3 6.8 6.9 7.2 6.9 6.9 7.2 7.3 8.1 8.2 8.3 8.5 8.7 8.9 9.0 9.1 9.2 9.2 9.0 8.6 8.5 7.9 7.5 7.3 7.1 6.9 6.6 6.6 6.4 6.4 6.4 6.4 6.3 6.1 6.0 6.2 6.0 5.8
5.7 5.6 5.6 5.8 6.1 6.0 6.2 6.9 7.0 6.7 6.9 6.9 7.1 7.2 7.6 7.9 8.2 8.2 8.4 8.7 9.0 9.0 9.1 9.1 9.0 8.7 8.5 8.2 7.7 7.2 7.0 6.9 6.7 6.6 6.6 6.5 6.3 6.4 6.2 6.0 5.8 6.0 5.8 5.7
5.6 5.6 5.3 5.6 5.5 6.1 6.5 6.3 6.6 6.6 6.9 7.0 6.8 6.8 7.1 7.5 7.6 7.7 8.0 8.3 8.7 9.0 9.1 9.0 9.0 9.0 8.3 8.0 7.9 7.6 7.2 7.3 7.2 6.8 6.6 6.6 6.2 6.3 6.1 5.6 5.5 5.5 5.8 5.9
5.9 5.7 5.5 5.6 5.8 6.1 6.7 6.8 6.8 6.9 7.0 7.1 7.1 7.0 7.1 7.2 7.4 7.5 7.7 7.8 8.3 8.9 9.1 9.0 8.9 9.0 8.3 8.1 8.0 7.6 7.3 7.0 7.2 7.1 6.6 6.1 6.0 6.4 6.2 5.9 5.7 6.0 5.4 5.8
5.7 5.6 5.5 5.5 5.9 6.4 6.3 6.5 6.9 7.0 6.9 7.3 7.3 7.3 7.2 7.2 7.4 7.3 7.3 7.4 7.7 8.3 8.9 9.0 8.9 8.9 8.4 8.3 8.2 7.9 7.4 7.0 6.9 6.9 6.6 6.2 5.9 5.8 5.9 6.1 5.6 5.7 5.8 5.6
5.8 5.5 5.4 5.8 5.7 5.7 6.0 6.3 6.9 6.7 6.8 6.7 6.9 7.1 7.1 7.0 7.1 7.4 7.3 7.3 7.4 8.0 8.4 8.8 8.8 8.8 8.6 8.3 8.2 8.1 7.7 7.3 6.9 6.6 6.5 6.5 6.2 5.7 5.8 5.9 6.0 5.8 5.6 5.8
5.4 5.2 5.1 5.5 5.5 6.0 5.9 5.9 6.3 6.2 6.2 6.6 7.0 6.8 7.0 7.0 7.1 7.2 7.1 7.2 7.4 7.6 8.0 8.4 8.3 8.3 8.4 8.3 8.2 8.0 7.8 7.3 6.9 6.8 6.5 6.3 6.3 5.9 5.5 6.0 6.4 6.1 5.9 5.9
4.9 5.2 4.7 5.0 5.3 6.2 6.3 6.4 6.4 6.2 6.3 6.9 6.7 6.6 6.7 7.1 7.1 7.3 7.1 6.9 6.8 7.2 7.5 7.6 7.8 8.0 8.0 8.2 8.1 7.9 7.7 7.2 6.9 6.8 6.5 6.2 6.1 6.2 5.9 6.0 6.2 6.1 6.1 6.1
4.7 4.7 4.1 4.3 5.5 5.8 6.5 6.7 6.5 6.6 6.8 7.0 7.2 6.9 6.7 6.9 7.0 7.2 7.1 6.7 6.6 6.4 7.1 7.0 7.8 7.6 7.8 8.0 7.9 7.8 7.3 6.9 6.7 6.7 6.5 6.4 6.2 6.2 6.2 6.3 6.2 6.1 6.2 6.2
4.6 4.2 4.6 4.9 5.3 5.3 6.2 6.2 6.3 6.4 6.5 6.9 7.2 6.9 6.9 6.8 7.0 7.1 7.0 6.7 6.3 6.4 6.7 7.0 6.9 7.4 7.6 7.7 7.7 7.8 7.3 6.9 6.6 6.6 6.7 6.5 6.5 6.3 6.5 6.4 6.4 6.4 6.2 6.3
4.7 4.8 4.5 4.6 5.1 5.1 5.9 5.8 6.1 6.4 7.0 6.8 6.8 6.7 6.8 6.9 7.1 7.0 6.9 6.6 6.3 6.3 6.7 6.9 7.4 7.7 7.6 7.2 7.2 7.5 7.5 7.1 6.6 6.5 6.5 6.5 6.5 6.5 6.5 6.5 6.5 6.4 6.5 6.6
Wind_Speed
2 4 10 7 2 5 7 7 12 17 8 6 7 16 20 11 13 15 16 17 18 20 17 15 14 14 14 13 13 13 12 10 8 7 7 6 6 7 7 8 9 8 9 7
3 11 7 3 2 3 5 10 12 12 4 4 8 13 16 10 17 19 19 19 20 19 17 14 15 16 16 15 14 14 13 12 9 7 7 4 7 7 7 7 9 9 8 6
6 3 6 1 5 7 9 7 6 8 14 2 7 9 6 3 8 11 17 18 20 20 20 18 17 18 17 16 16 15 14 12 10 9 7 5 6 4 5 6 7 7 8 8
8 7 10 10 10 8 9 5 7 10 11 9 3 9 16 4 8 10 12 16 19 18 18 17 18 17 19 17 15 15 14 13 10 11 9 10 9 8 6 7 6 6 9 8
5 3 4 5 5 8 6 2 9 9 7 5 4 4 7 6 7 8 6 13 17 19 19 18 18 19 16 14 15 14 13 13 12 12 10 10 10 7 7 6 8 5 5 7
10 2 4 5 2 7 6 8 4 1 1 6 2 3 8 4 9 13 6 5 14 17 17 16 16 13 14 13 13 13 16 14 12 12 12 13 12 9 7 7 6 5 4 4
9 15 11 8 11 6 3 5 4 3 3 7 3 4 10 17 10 10 11 4 13 16 16 16 17 16 15 16 16 15 14 15 14 14 13 13 12 10 9 8 7 6 5 5
3 4 5 6 6 4 5 4 5 4 6 12 2 5 5 8 11 7 4 3 9 16 18 19 19 18 19 19 18 15 13 14 14 14 14 12 12 8 7 7 6 6 5 5
3 6 4 6 4 5 4 6 2 2 1 3 2 4 11 3 6 8 3 3 7 12 17 18 18 18 19 19 20 18 14 15 15 14 13 12 10 11 9 8 6 5 5 5
1 6 1 2 4 1 10 7 3 2 3 4 3 5 6 11 12 13 11 7 8 10 13 15 16 18 18 19 18 17 14 16 15 15 13 12 11 10 9 6 8 6 5 7
0 4 4 3 4 2 4 4 2 1 3 5 7 5 5 6 9 11 12 10 8 9 11 14 14 16 16 16 18 18 16 15 15 15 13 13 12 11 10 8 8 7 5 7
3 2 5 11 3 5 5 3 6 7 6 3 4 8 3 5 10 4 9 10 8 8 10 12 14 15 16 17 17 18 17 17 15 15 14 14 12 11 12 10 10 7 7 6
1 2 7 6 5 4 2 2 2 2 1 7 7 7 4 8 10 7 5 9 8 5 9 11 13 15 16 17 17 17 16 16 14 14 13 14 14 13 13 12 10 9 7 6
3 4 9 12 9 3 8 6 8 5 5 5 10 10 9 10 13 16 17 15 13 5 7 10 13 15 15 15 16 16 16 16 15 14 14 14 15 14 14 12 11 10 9 7
2 6 6 11 12 13 14 17 16 15 13 9 12 11 14 13 15 14 14 14 14 9 7 10 12 13 14 15 15 15 15 15 16 16 16 15 14 14 13 12 12 11 10 9
1 5 4 13 15 16 20 22 21 21 18 19 20 24 15 13 11 12 14 17 14 13 10 12 11 13 16 17 17 16 17 17 15 17 16 14 14 14 14 13 11 11 10 9
4 4 3 6 4 7 11 16 17 18 18 15 18 17 10 9 13 14 15 15 17 13 13 13 12 13 14 17 17 17 17 15 16 16 15 13 13 13 12 12 12 11 10 9
6 4 4 5 4 7 2 6 8 8 9 5 7 7 8 11 13 6 12 15 16 16 14 12 12 12 14 15 16 15 14 16 14 13 12 13 13 11 10 9 9 8 3 4
9 6 4 4 5 10 14 3 5 4 1 9 8 11 12 16 10 6 18 18 16 15 15 13 9 13 12 15 17 15 16 16 14 16 13 12 11 12 11 11 8 8 5 5
5 1 4 3 5 6 4 6 6 3 6 13 12 12 15 15 7 4 18 19 19 17 14 15 13 9 12 14 16 16 16 16 16 16 15 15 14 13 13 11 11 10 9 10
2 3 8 8 8 8 4 10 1 9 5 15 13 14 13 8 8 16 16 17 17 16 16 16 10 7 11 14 17 17 16 17 16 13 11 11 13 10 10 8 11 13 12 9
2 3 3 2 5 8 9 4 7 10 10 12 11 11 14 15 15 15 15 17 18 19 18 16 12 5 7 13 15 15 16 15 13 13 12 10 8 9 8 13 14 10 9 10
4 5 2 5 4 7 15 12 8 11 14 16 12 14 14 15 16 15 13 15 15 17 15 14 13 6 7 12 13 14 13 13 13 14 14 12 8 8 8 9 8 7 8 8
4 6 6 8 6 10 15 20 18 13 14 15 15 17 15 16 15 15 11 12 11 12 14 12 13 8 7 10 11 10 13 13 13 13 12 11 11 11 10 7 7 7 8 8
9 4 10 15 16 16 16 12 13 19 18 19 17 17 15 16 14 13 11 13 11 11 11 11 10 11 5 7 8 9 12 15 14 13 12 11 9 11 8 6 3 6 7 5
9 13 7 12 12 12 16 15 16 16 18 18 17 18 18 16 14 12 10 11 11 12 11 11 10 11 5 8 9 9 11 12 13 11 10 10 9 9 8 7 5 11 9 5
Wind_Direction
40 226 237 271 253 292 288 292 308 306 319 285 260 268 283 236 218 214 215 212 213 212 213 211 206 203 195 195 188 191 182 179 178 182 190 191 193 204 205 203 206 211 216 222
225 243 256 256 198 256 269 301 311 296 317 290 296 283 283 252 235 224 216 215 216 217 209 206 208 199 196 188 187 187 183 176 183 187 190 197 200 201 203 199 203 209 206 216
246 241 99 261 265 262 271 268 297 299 326 308 294 285 287 265 260 248 236 224 218 209 208 206 198 194 193 188 187 186 181 176 181 189 181 173 175 167 183 194 197 201 204 211
272 276 243 249 255 233 281 215 284 307 328 316 342 311 311 295 284 250 238 219 218 208 208 206 201 194 195 190 182 183 177 173 179 182 186 192 193 192 194 188 191 191 201 205
226 224 210 216 239 182 281 304 313 309 290 298 246 265 279 313 306 319 294 220 214 201 200 200 196 196 190 179 183 181 178 175 174 179 193 196 202 190 183 178 181 187 186 209
260 234 244 249 187 208 301 301 303 72 263 265 55 272 288 315 317 317 314 229 208 201 201 199 195 180 181 176 177 181 178 180 179 176 194 205 202 190 183 180 190 193 197 197
259 257 258 238 272 216 227 280 297 265 245 296 119 247 269 289 304 304 309 257 198 196 192 192 186 178 177 181 189 189 175 182 184 179 193 203 205 195 192 189 196 188 191 193
294 297 178 163 207 216 187 271 266 282 287 304 166 243 296 283 329 318 316 275 201 195 195 195 188 181 181 188 194 188 181 184 189 183 193 200 201 205 199 194 199 206 208 196
220 249 270 220 178 192 156 219 350 193 148 258 270 272 281 330 336 358 325 254 208 211 207 195 192 190 187 189 195 192 182 187 189 189 191 195 201 208 203 194 196 214 212 209
81 281 268 18 246 237 242 142 200 206 250 272 250 279 278 324 343 344 1 298 247 206 207 205 197 194 194 195 195 191 189 186 185 190 195 195 202 207 208 201 204 204 212 213
197 233 284 268 204 292 158 206 204 237 251 268 277 262 204 278 326 325 344 345 268 226 202 202 198 196 196 192 192 194 195 185 186 190 189 199 204 209 210 210 207 206 201 210
27 283 269 289 312 278 264 214 214 243 220 230 297 266 188 267 307 316 340 339 310 258 207 199 192 189 191 195 194 193 192 193 190 186 184 196 199 203 210 216 209 204 205 197
26 253 297 272 174 138 71 37 29 309 287 208 236 262 187 297 316 322 344 345 342 271 220 190 188 193 191 195 197 195 193 196 190 181 184 193 201 201 212 212 212 209 212 218
205 248 254 269 298 313 282 264 294 281 260 241 233 262 275 319 328 325 343 358 351 297 239 206 189 194 197 194 195 196 198 195 189 186 188 194 197 201 209 211 213 213 214 218
287 264 251 271 278 273 270 278 276 257 256 262 274 271 284 307 316 321 333 345 355 341 263 228 210 194 191 187 196 192 198 197 191 191 194 198 193 196 204 210 209 215 218 221
16 273 279 286 276 267 267 265 263 264 256 255 260 269 282 296 310 330 350 342 356 346 311 261 228 206 192 190 193 191 192 194 188 193 199 196 195 196 198 204 209 214 222 228
263 269 264 275 306 295 271 264 256 261 262 260 260 284 315 326 331 345 347 350 338 340 332 296 248 209 200 193 185 194 189 181 189 198 194 198 192 191 199 199 203 207 215 221
234 219 247 280 278 251 360 328 302 278 291 315 272 341 345 327 314 330 2 349 335 337 329 315 268 224 200 186 186 188 184 184 187 191 192 188 190 187 186 188 207 209 181 140
213 205 221 250 231 303 285 40 354 11 311 21 346 345 344 340 323 180 7 353 333 333 329 312 282 254 208 186 179 178 178 187 190 188 178 183 183 173 168 178 178 153 169 150
151 206 244 171 267 268 77 343 319 246 229 10 354 347 343 341 333 349 345 339 337 327 335 322 309 248 203 184 174 172 174 176 189 185 186 164 186 180 172 176 171 176 192 184
223 225 250 253 260 273 9 336 165 236 330 336 330 321 321 313 307 308 317 324 332 329 326 332 314 247 212 185 180 182 176 183 197 185 186 165 194 173 165 197 207 200 189 177
282 294 251 231 239 265 29 3 351 336 319 327 329 320 309 302 302 306 316 323 327 336 327 333 327 274 201 188 181 184 191 189 183 184 193 178 168 189 194 190 193 183 177 187
251 228 283 233 252 308 305 294 303 311 295 300 305 317 313 302 296 306 312 318 319 328 324 320 327 290 213 196 190 184 191 180 179 175 186 203 204 204 196 196 183 167 182 179
233 217 240 275 258 275 296 301 299 303 293 288 295 297 302 299 295 297 302 306 309 319 328 319 317 304 224 203 193 191 169 173 176 178 180 182 187 193 195 185 169 171 179 182
271 216 252 265 276 279 273 283 298 300 294 289 286 284 292 293 289 291 297 296 297 306 314 313 303 307 258 196 178 183 170 167 176 168 166 169 169 182 165 148 169 186 184 181
236 255 240 269 291 278 291 296 303 301 295 286 284 286 286 282 281 286 293 286 289 296 304 310 303 302 249 161 151 160 158 163 161 158 159 164 160 161 159 158 138 51 45 40